Theta_e
310 310 310 311 311 311 312 312 312 312 312 312 311 311 311 312 312 312 311 310 310 309 309 310 310 311 311 311 311 311 311 311 312 312 314 316 316 314 313 313 313 313 313 313 314 315 315 315 315 315 316 316 317 318 317 316 317 321 333 336 323 317 317 315 319 318 319 320 316 315 316 316 317 316 315 315 315 315 314 314 314 314 314 315 314 314 314 313
310 310 311 311 311 311 312 312 312 311 311 311 311 311 312 312 311 311 311 310 309 309 309 310 310 311 311 311 311 311 311 311 312 314 315 315 315 314 313 313 313 314 313 314 314 315 315 315 315 314 316 316 317 318 317 317 316 321 334 331 320 321 317 313 317 315 315 317 314 315 316 316 317 316 315 316 315 314 315 314 313 314 314 314 313 313 313 313
311 311 311 311 311 311 311 311 311 311 311 311 311 311 311 310 310 310 310 309 308 309 309 310 310 310 310 311 311 311 311 311 313 315 315 313 314 313 313 313 313 313 313 314 314 314 315 314 314 315 315 315 315 317 316 317 315 316 327 327 318 320 315 313 316 315 316 316 314 315 315 316 317 316 316 315 314 313 316 315 313 314 314 313 314 313 313 312
310 310 310 310 310 310 310 310 310 310 310 310 310 310 309 309 309 309 309 308 308 309 309 310 310 310 310 311 311 311 311 311 313 315 314 313 314 313 313 314 313 314 313 313 314 314 315 314 315 315 315 315 314 316 316 316 314 313 322 323 315 314 315 316 315 315 317 316 316 315 315 316 315 316 315 314 315 315 315 315 315 315 315 314 314 313 312 312
308 308 308 308 308 308 308 308 308 308 308 308 308 308 308 308 308 308 308 308 309 309 309 310 310 310 310 310 311 310 312 315 316 314 313 313 313 313 313 313 313 313 313 313 314 314 315 315 315 315 315 315 315 316 316 315 315 314 316 316 313 313 316 316 315 316 315 316 316 315 315 315 315 316 315 314 316 317 315 315 316 315 315 315 315 313 312 311
307 307 308 307 307 307 307 307 307 307 307 307 307 308 307 307 308 308 308 308 309 309 309 310 310 310 310 311 311 310 312 317 317 313 313 313 313 313 313 313 313 313 313 313 313 314 315 315 315 315 314 314 314 315 316 315 316 317 315 314 314 314 316 316 315 315 315 315 315 314 315 315 315 315 315 314 315 316 315 315 315 315 315 315 314 313 312 312
309 309 309 309 308 308 308 308 308 308 307 308 308 307 308 308 308 308 308 308 309 309 309 310 310 310 310 310 310 310 311 314 315 314 313 313 313 313 313 313 313 313 313 313 313 314 315 315 315 315 314 315 314 314 316 316 316 319 318 314 315 315 316 316 316 316 315 314 314 315 315 315 315 315 315 315 315 316 315 315 315 315 315 314 314 313 312 312
311 311 311 310 310 310 310 309 309 308 308 308 308 308 308 308 308 308 308 309 309 309 309 310 310 310 310 310 310 313 315 314 314 314 313 313 313 312 313 313 313 314 314 313 314 314 315 316 315 315 315 315 315 315 315 316 317 319 318 315 316 316 316 316 316 317 316 315 315 315 315 315 315 315 314 315 315 315 315 314 314 314 313 313 313 313 312 312
311 310 310 310 310 310 310 311 310 310 309 309 308 308 308 308 308 308 309 309 309 309 309 310 310 310 310 310 310 314 316 315 313 314 313 313 313 312 313 314 315 316 316 315 314 314 315 315 315 315 315 314 316 316 315 317 317 317 316 315 316 316 316 316 316 316 316 316 315 315 315 315 315 314 315 315 314 315 314 313 313 313 312 313 312 312 312 311
309 309 309 309 309 309 310 310 310 310 310 310 310 309 309 309 309 309 308 309 309 309 309 309 310 310 310 310 311 313 315 316 314 314 313 313 313 313 314 315 316 317 317 316 315 315 316 316 316 315 315 315 315 315 315 317 317 316 315 316 316 317 316 316 316 316 316 316 315 315 316 315 314 315 316 315 314 314 314 313 312 312 312 312 312 311 311 311
308 308 308 308 308 309 309 309 309 309 310 310 311 310 310 309 309 309 309 309 309 309 309 309 309 310 310 310 312 313 315 316 315 313 313 313 313 314 315 316 317 317 318 317 316 316 316 316 316 315 316 316 315 315 315 316 316 315 315 317 317 315 316 316 315 315 315 315 315 315 315 314 313 314 317 315 314 314 313 313 311 312 312 311 311 311 311 312
308 308 308 308 308 308 309 309 309 309 309 309 310 310 310 310 310 309 309 309 309 309 309 309 309 309 310 310 312 313 316 316 314 314 313 313 314 314 314 315 316 317 318 318 318 318 317 317 316 315 316 315 316 316 315 316 315 316 316 318 321 319 319 317 314 314 315 315 315 315 315 317 316 314 316 314 314 314 312 312 312 311 311 311 311 311 311 312
308 308 308 308 308 309 308 309 309 309 309 308 308 309 310 311 310 310 310 309 309 309 309 309 309 309 309 310 311 311 315 317 314 313 314 314 314 313 313 314 315 316 317 318 318 318 318 318 317 317 316 315 316 315 316 315 314 317 315 315 322 324 324 317 313 314 314 315 315 315 319 327 325 314 313 314 313 313 311 311 311 311 311 311 311 311 311 312
308 308 308 308 308 308 309 308 308 309 308 308 308 308 308 309 310 310 310 310 310 309 309 309 309 309 309 310 312 311 314 317 316 315 315 314 314 314 314 314 315 316 317 317 318 318 318 318 318 317 316 316 316 315 318 317 316 318 314 319 323 320 329 323 312 314 315 314 314 315 319 326 326 315 312 314 313 313 312 311 311 311 311 311 311 311 311 312
307 307 307 308 308 308 308 308 308 308 308 308 307 307 307 308 309 309 310 310 310 309 309 309 309 310 311 310 311 312 313 315 317 316 315 314 314 314 315 315 316 316 317 317 318 318 318 318 317 316 315 315 316 318 325 325 324 324 316 327 328 318 331 329 311 313 317 314 312 316 320 321 320 315 312 313 312 313 312 311 311 311 311 311 311 311 311 312
307 307 307 307 307 307 308 308 308 308 307 307 307 307 307 307 307 308 309 309 308 308 308 309 309 311 312 312 312 313 312 314 315 316 315 314 314 314 315 316 316 317 317 317 317 318 318 317 315 315 315 315 319 328 334 328 330 333 321 326 331 321 325 326 314 312 314 314 312 314 320 322 318 312 311 313 311 312 311 311 311 311 311 311 311 311 311 312
307 307 306 307 307 307 307 307 307 307 307 307 307 307 307 306 306 306 307 307 307 308 309 311 312 311 313 314 314 314 313 313 314 315 315 314 314 315 315 316 316 317 317 317 317 317 316 316 315 317 316 315 319 329 332 324 327 333 322 321 328 323 321 324 321 314 311 314 315 313 316 319 317 311 310 312 311 311 311 311 311 311 311 311 311 311 311 311
307 306 306 306 307 307 307 307 307 307 307 307 306 307 307 307 306 306 307 307 308 311 311 313 314 312 313 313 314 315 314 314 314 314 315 315 315 315 316 316 317 317 317 316 316 315 315 315 316 320 319 315 318 324 326 324 328 332 325 322 325 323 320 323 324 317 312 315 316 315 315 315 315 311 310 312 311 311 311 311 311 311 311 311 311 311 311 311
307 306 306 306 307 307 307 307 307 307 307 307 307 307 307 307 307 307 308 309 310 313 313 314 313 313 314 313 313 315 315 315 315 315 315 315 315 316 317 316 317 316 316 316 316 314 315 316 318 321 321 318 318 321 322 325 329 332 331 329 329 326 322 322 323 317 313 315 316 316 315 314 315 313 311 311 311 310 311 311 311 310 311 311 311 311 311 311
307 307 307 307 307 307 307 307 307 307 307 307 307 307 308 309 310 311 311 311 310 311 312 313 312 312 315 315 313 315 315 315 316 316 315 316 316 316 316 316 316 315 315 319 319 314 315 320 322 322 322 320 318 318 320 321 323 325 326 327 327 326 324 323 323 317 311 315 319 317 315 315 315 315 311 310 310 309 309 310 310 310 311 311 311 311 311 310
307 307 307 307 307 307 307 306 307 307 307 307 307 308 309 310 312 313 312 311 310 308 311 313 313 313 314 316 315 315 315 316 316 317 316 317 317 316 316 315 317 318 316 317 317 314 316 321 323 323 320 318 318 317 317 318 318 319 321 322 323 323 322 321 321 317 311 315 321 320 317 315 314 314 311 309 310 309 309 310 310 310 310 311 311 310 311 310
307 307 307 307 307 306 306 307 307 307 307 307 308 308 310 310 312 313 313 314 312 309 310 312 313 314 314 315 316 316 316 317 317 317 317 317 316 316 316 315 318 321 316 314 317 317 318 320 320 318 315 315 317 317 316 317 318 319 319 319 321 322 320 321 322 318 313 315 321 322 318 316 315 314 312 309 309 311 311 311 312 312 311 310 311 310 311 310
308 307 307 307 307 306 306 307 307 308 307 307 308 308 311 313 313 314 315 315 316 313 311 312 312 312 314 315 316 317 316 317 317 317 317 316 316 316 315 315 318 320 317 317 322 322 322 325 320 313 313 316 318 318 317 316 317 319 320 318 320 322 320 323 323 317 315 316 318 320 317 315 315 316 315 311 310 311 312 312 312 312 311 311 312 311 312 311
310 309 309 307 307 307 307 307 308 308 307 308 308 308 312 315 315 315 315 315 317 316 312 313 312 311 313 314 315 317 317 317 317 317 317 316 316 315 314 315 317 318 317 318 321 320 322 324 316 312 315 318 319 318 318 319 319 321 321 319 320 321 320 322 322 319 322 322 317 317 318 319 319 318 317 314 311 311 311 312 312 311 311 311 311 311 311 311
314 313 312 309 308 307 308 308 308 308 307 308 308 309 312 316 317 316 315 317 320 319 315 314 314 313 312 312 314 316 317 317 317 317 317 316 316 316 314 315 317 320 318 316 317 318 319 317 315 317 318 318 319 319 321 322 321 321 322 321 320 321 322 321 321 320 325 329 321 316 322 330 330 323 320 318 315 314 312 310 310 311 310 310 310 310 310 310
316 315 315 312 309 308 309 309 309 308 308 308 308 311 314 316 317 316 316 321 321 318 317 315 315 316 314 314 315 315 317 317 316 317 317 316 316 315 316 315 315 318 317 315 316 317 317 314 317 324 321 320 320 319 322 321 319 321 324 323 320 321 322 322 322 321 325 328 320 317 324 329 327 324 324 326 322 320 317 310 309 310 310 310 310 310 310 310
317 316 316 314 309 309 311 311 310 308 308 309 308 311 314 315 315 313 315 321 319 316 318 317 315 316 315 316 315 315 317 317 316 317 316 316 316 315 318 317 315 315 314 316 318 317 318 317 318 322 323 323 321 320 322 319 319 325 324 323 322 321 321 321 321 322 325 325 320 321 325 324 322 322 324 326 325 324 322 316 311 308 309 310 309 310 310 310
319 316 316 315 310 309 311 312 313 311 311 312 310 311 314 314 314 314 315 319 317 316 319 317 314 315 316 316 316 315 316 316 317 317 316 316 316 315 317 316 316 316 314 316 321 317 317 321 320 320 321 321 320 321 322 319 321 324 321 321 323 322 324 324 323 323 323 322 322 322 321 322 325 324 322 321 322 323 322 321 315 309 308 309 309 310 310 310
320 317 317 315 310 310 312 314 315 314 314 315 312 311 315 315 315 317 318 319 317 318 318 317 316 315 315 316 315 315 315 315 317 317 315 315 315 315 316 315 314 316 315 315 320 318 316 318 317 318 320 320 322 324 322 320 320 318 317 320 323 323 326 328 327 326 326 324 324 323 321 323 326 326 322 319 321 323 321 321 316 309 309 310 308 309 309 309
321 319 317 315 311 311 313 314 315 315 315 316 315 313 315 317 317 319 320 320 320 320 315 315 317 315 315 315 315 315 315 315 315 315 314 314 315 314 315 315 314 318 319 315 319 320 315 313 313 317 318 317 320 318 314 317 316 314 320 326 327 327 328 330 328 325 326 324 323 325 323 323 326 326 324 322 323 324 321 321 318 309 308 309 308 308 309 309
321 320 318 316 314 312 313 314 315 316 315 315 316 315 316 318 319 321 322 319 319 320 315 316 317 315 315 316 317 316 315 314 313 314 315 314 315 314 315 316 315 320 321 317 321 320 316 316 315 315 314 313 318 317 312 314 313 317 330 331 327 328 328 329 327 324 325 325 323 324 322 321 324 325 324 322 322 322 320 322 323 313 307 308 308 308 309 309
321 320 319 318 316 314 314 315 316 316 315 316 316 315 317 320 320 323 323 320 321 322 318 319 318 316 315 317 318 317 316 316 313 315 317 316 316 315 315 318 318 320 321 319 321 319 319 321 317 313 313 314 321 322 317 316 315 321 329 326 323 326 326 327 327 324 324 323 319 318 319 320 322 322 321 321 322 321 317 315 318 313 307 309 309 308 308 309
322 321 320 319 318 316 315 316 316 316 316 316 316 315 318 321 322 323 322 323 324 321 319 320 318 316 317 318 319 316 316 318 315 315 316 315 317 316 316 319 318 320 324 320 318 319 322 322 317 315 316 315 319 322 320 320 319 320 322 324 325 325 326 329 328 324 324 324 317 314 317 321 322 322 322 321 318 316 312 310 312 312 311 311 310 308 308 308
322 321 319 319 319 319 317 316 316 316 316 315 315 316 319 321 323 323 322 322 322 319 319 320 317 316 317 319 320 316 317 319 315 315 317 316 318 317 317 318 316 321 326 320 318 321 323 323 320 319 318 317 317 318 321 322 319 318 320 322 323 326 330 331 329 327 327 325 318 314 319 324 326 325 320 314 310 309 310 310 311 311 311 311 309 307 307 307
322 322 320 320 319 319 318 317 316 316 316 315 316 317 319 321 323 324 323 321 322 322 319 318 317 318 318 320 321 316 317 320 316 316 318 317 318 318 317 317 315 319 324 320 319 319 320 324 324 317 314 316 317 315 318 321 320 318 320 322 322 325 328 326 324 324 323 323 320 317 320 324 324 322 315 310 308 308 308 308 309 309 308 308 307 306 307 307
321 322 320 320 320 319 318 317 316 316 315 315 316 317 319 321 322 324 323 321 323 322 319 318 319 320 319 319 320 317 316 320 318 317 318 317 317 317 317 317 314 315 319 319 322 321 320 324 321 314 313 314 315 315 315 318 321 318 318 321 320 319 322 323 322 318 318 322 322 319 322 324 322 320 316 314 313 312 309 307 306 306 306 305 306 306 306 307
321 321 320 320 320 320 319 317 317 316 315 315 317 317 318 320 321 322 322 320 320 320 320 321 321 321 320 319 320 319 317 320 317 317 319 317 318 318 316 317 315 314 316 317 322 323 322 325 319 314 318 313 310 314 313 311 317 320 321 320 317 317 322 326 325 322 322 324 323 320 321 323 322 321 318 315 316 317 315 310 305 303 303 304 304 306 306 307
320 320 319 320 320 320 319 318 317 316 315 315 316 316 317 319 319 318 319 319 319 319 320 322 321 320 321 320 320 319 318 320 317 317 319 318 319 319 316 317 316 313 314 315 320 323 322 324 319 313 317 314 310 315 317 312 312 318 320 318 318 324 325 323 324 325 325 325 325 323 321 320 319 321 321 318 321 323 318 312 309 305 302 302 303 305 305 306
320 319 319 320 320 320 319 318 317 315 315 315 315 316 317 317 316 316 317 318 319 320 320 322 321 320 320 319 320 319 318 320 317 316 320 318 319 318 315 317 317 313 313 313 318 323 322 323 322 313 312 314 313 316 321 318 312 313 315 314 318 324 323 322 324 324 326 326 326 325 323 321 319 321 323 322 324 324 318 314 313 307 302 302 304 305 305 306
319 318 318 320 320 320 319 318 316 315 316 315 315 315 316 316 315 316 317 317 318 320 320 321 322 321 321 319 320 320 318 319 317 316 319 318 318 318 315 316 318 315 313 313 316 321 321 321 322 316 312 314 317 318 318 319 315 315 317 317 318 318 318 321 322 322 325 326 327 326 323 323 323 320 321 321 322 321 317 317 313 306 303 304 304 306 307 307
318 318 318 319 319 319 319 317 316 315 316 315 314 314 315 315 315 315 316 317 318 320 319 320 321 321 321 320 320 320 319 319 317 316 319 318 318 321 318 315 317 317 314 314 317 319 321 323 325 320 315 316 320 318 315 316 317 316 317 318 318 317 319 322 321 320 321 323 326 325 323 324 324 319 318 321 321 316 313 313 311 306 304 305 305 308 308 307
318 318 318 319 318 319 318 316 316 316 316 315 313 314 314 314 315 315 316 316 316 317 318 320 322 321 321 321 320 320 320 319 318 316 318 318 318 321 319 315 315 315 314 316 316 316 320 325 326 322 317 317 319 315 310 313 317 315 316 319 319 317 319 322 323 321 320 321 323 322 323 322 317 315 317 316 313 309 307 308 308 307 306 305 306 308 307 307
316 316 317 317 318 318 317 317 317 316 315 313 312 313 312 313 315 315 315 316 316 317 318 321 321 320 320 321 321 321 320 320 319 318 318 318 318 318 317 315 315 314 315 317 317 315 318 323 324 322 318 317 318 314 310 312 315 315 317 320 319 317 317 321 323 321 321 322 321 320 324 320 312 312 311 304 304 306 307 308 307 307 307 306 306 307 307 306
315 315 315 316 317 318 317 318 317 315 313 311 311 312 312 312 314 315 315 316 316 317 319 320 320 320 320 322 322 321 321 321 321 319 319 320 318 315 314 315 316 316 316 319 318 316 318 322 323 323 322 321 319 318 315 314 315 316 318 318 315 316 317 318 319 319 319 322 321 321 323 319 315 315 311 307 309 309 306 306 308 307 307 306 305 306 306 306
314 314 313 314 316 317 317 317 316 313 311 310 311 312 312 312 313 314 315 314 314 316 318 320 320 319 320 321 321 321 321 321 322 320 320 321 317 313 312 313 315 316 316 317 316 316 321 324 322 321 324 324 323 322 319 316 315 316 318 317 315 316 318 317 318 318 319 320 321 322 321 320 320 319 317 318 319 315 309 306 306 307 307 307 307 306 306 305
314 314 313 313 314 316 316 316 315 314 312 311 311 311 312 312 312 313 314 315 314 314 317 319 319 319 321 321 321 322 321 320 322 322 320 321 320 313 310 311 313 314 314 314 315 318 323 324 321 320 323 323 323 324 320 318 317 316 317 317 316 316 316 317 318 319 320 320 320 320 320 322 322 320 320 322 320 319 315 307 305 306 307 307 307 307 306 306
313 315 314 314 314 315 315 315 315 314 313 311 311 312 312 312 313 313 314 315 315 314 316 318 319 319 321 321 321 322 321 320 321 322 321 321 320 313 309 310 311 312 313 313 314 319 324 323 320 322 322 321 324 324 319 317 318 317 317 317 315 315 315 317 318 319 321 321 321 320 319 321 320 318 321 323 321 321 316 306 304 307 306 307 307 306 306 306
311 313 313 313 314 314 314 314 314 314 313 311 311 312 312 312 313 314 314 314 315 315 316 318 319 319 320 320 321 321 321 321 320 321 320 320 318 315 312 311 309 309 312 313 312 317 323 322 320 321 321 320 322 322 318 316 317 316 317 316 315 315 315 316 317 317 320 320 320 321 321 321 319 318 320 320 318 317 313 308 306 306 306 306 306 305 305 305
309 310 311 312 313 312 312 313 313 313 313 312 310 311 312 312 313 314 314 314 315 315 317 318 318 318 318 319 320 320 320 321 320 320 319 319 319 318 317 315 311 307 311 315 313 314 320 322 320 319 320 320 320 320 318 317 317 317 317 316 315 315 315 315 316 316 317 318 318 319 320 320 318 319 320 317 312 310 308 307 307 307 306 306 305 305 305 304
308 310 310 310 311 310 310 310 311 313 313 312 311 311 311 311 313 313 313 314 314 315 316 317 317 317 317 318 319 319 319 320 321 320 319 319 319 318 319 319 315 309 310 315 315 314 316 320 319 318 320 320 318 318 318 318 317 318 317 316 315 315 314 315 315 316 316 317 317 317 319 318 316 317 317 313 309 308 306 306 307 307 307 305 305 305 304 304
307 309 309 309 309 310 310 310 311 312 312 311 310 310 310 311 312 313 313 313 314 314 315 316 317 316 316 317 318 318 318 318 319 317 317 318 318 317 318 316 314 312 312 314 315 315 316 317 316 317 319 319 318 319 318 317 316 316 317 316 315 314 314 314 315 315 316 317 317 317 318 318 316 315 313 310 307 307 306 305 306 306 306 306 305 304 304 304
305 307 308 308 309 310 311 311 311 313 312 311 309 310 310 311 311 312 313 313 313 313 314 315 315 316 316 316 316 317 316 316 316 315 315 316 316 316 317 314 313 316 316 313 314 315 316 316 315 316 318 319 319 320 319 316 316 318 318 317 316 314 314 314 314 315 315 315 317 317 317 317 318 317 315 314 312 308 306 306 307 307 306 306 305 305 306 306
Wind_Speed
14 14 13 13 13 12 12 12 11 11 11 10 10 10 9 9 9 10 9 9 9 9 10 10 9 8 6 5 4 3 3 4 4 4 4 4 3 2 3 5 5 4 2 1 3 4 3 2 2 3 3 4 5 5 5 6 6 3 3 4 2 2 2 3 6 6 4 4 6 8 8 5 4 4 7 5 5 8 6 6 7 6 8 8 8 12 13 10
14 13 13 13 13 12 12 12 11 11 11 10 10 10 10 9 10 10 10 9 9 10 10 10 9 7 6 4 3 2 3 3 3 3 3 4 4 3 6 7 7 6 5 3 1 3 3 1 2 2 3 4 4 4 4 5 6 4 3 4 2 5 2 1 5 5 3 6 9 8 6 6 6 6 8 4 4 8 7 6 6 7 8 8 9 10 9 9
13 13 13 13 12 12 12 11 11 11 10 10 10 10 10 10 10 10 10 10 10 11 10 10 8 7 6 4 3 2 3 4 3 3 3 3 4 6 8 9 8 6 5 5 3 1 3 1 2 3 2 3 3 3 4 5 4 2 4 4 3 6 2 3 5 4 6 11 11 8 6 7 7 6 6 6 6 5 5 7 7 8 10 10 10 10 9 9
12 12 12 12 12 11 11 11 10 10 10 10 10 10 10 10 11 11 11 11 11 11 10 9 8 7 5 4 3 2 2 3 4 4 5 6 7 8 9 9 7 4 2 4 4 2 3 3 3 3 2 2 2 2 3 5 3 1 3 3 5 6 4 3 7 8 9 11 9 8 6 6 8 6 6 10 7 3 8 12 11 10 13 12 11 10 9 10
11 11 11 11 11 10 10 10 10 10 10 10 10 10 10 10 10 11 11 11 11 10 10 9 7 6 5 4 3 3 1 1 5 8 7 8 8 9 9 8 6 4 2 1 3 1 3 3 3 3 3 2 1 2 2 5 4 3 2 2 5 6 3 4 7 9 9 8 7 7 5 6 8 6 7 10 6 5 10 14 14 11 11 11 10 10 9 10
12 11 10 10 9 9 9 9 10 10 10 10 10 10 10 10 10 10 10 10 10 10 9 8 7 6 5 5 3 4 2 1 7 10 7 8 8 8 7 5 4 3 4 2 3 2 2 3 4 3 3 2 1 2 3 4 4 3 0 2 4 5 6 7 7 6 7 7 8 7 6 8 8 5 6 9 9 7 8 12 13 10 10 10 10 10 10 11
12 11 11 10 9 9 9 9 9 9 9 9 10 10 10 10 10 10 10 10 10 9 9 8 7 6 5 5 4 5 5 3 9 10 7 8 7 6 5 3 3 4 5 4 4 2 2 2 4 4 3 3 2 2 3 3 5 5 1 1 3 4 7 8 6 5 5 6 7 7 8 9 7 5 5 9 10 9 9 11 13 12 11 11 10 11 12 13
13 12 11 10 10 9 9 9 9 8 8 9 9 9 10 10 10 10 10 10 10 9 9 8 7 7 6 5 5 5 7 6 10 11 8 8 6 5 4 3 3 3 3 4 3 3 2 3 5 4 3 2 2 2 2 3 5 5 2 1 3 3 5 6 6 6 6 5 6 7 7 7 6 4 5 9 10 10 13 14 14 13 12 12 13 14 14 16
14 13 12 11 11 10 10 10 10 9 9 9 9 10 10 10 11 10 10 10 10 10 9 9 8 7 6 6 5 5 6 7 11 11 9 8 6 5 3 2 1 1 0 2 3 4 4 4 5 4 3 2 3 2 3 3 2 1 3 1 1 1 3 6 8 8 7 7 7 6 5 6 6 4 6 10 11 13 15 16 15 14 13 14 14 15 16 17
15 14 13 12 12 11 11 11 11 11 11 11 10 10 11 11 11 11 11 11 11 11 10 9 9 8 7 7 6 4 5 8 12 12 10 9 7 5 3 2 2 3 2 1 3 3 4 4 3 4 4 3 3 2 3 2 2 3 3 1 3 4 5 6 9 10 9 8 9 7 4 5 4 3 5 10 14 16 16 16 15 14 14 15 15 16 16 17
17 16 15 14 13 13 12 11 11 11 12 12 12 12 12 12 12 12 12 12 11 11 11 10 9 9 8 8 9 6 5 10 13 12 11 9 7 5 4 3 2 3 2 2 3 3 3 3 2 2 2 2 2 2 2 3 3 2 2 3 6 6 8 8 10 12 10 6 9 9 4 4 2 3 6 10 16 18 17 17 16 15 15 15 16 16 16 16
19 18 16 15 15 14 13 12 11 11 12 13 13 14 14 14 14 13 13 12 12 12 11 11 9 10 9 9 13 10 5 11 13 13 12 10 8 5 4 4 3 3 2 2 2 3 4 3 1 1 2 4 2 2 2 3 2 1 3 3 6 8 6 7 8 12 11 4 6 7 2 5 4 6 7 10 17 18 17 17 17 17 16 16 17 17 16 15
20 19 18 17 16 15 14 13 12 12 12 13 14 14 15 15 15 14 14 13 13 13 12 11 10 10 9 9 12 11 9 11 13 13 12 11 9 6 4 5 4 4 3 3 3 4 4 3 2 2 4 4 2 2 2 2 1 1 2 2 3 7 5 4 3 8 10 3 6 8 2 6 7 8 6 11 19 20 19 19 19 19 18 18 18 18 17 16
21 20 19 19 18 17 16 14 14 13 13 13 14 15 15 15 15 15 15 14 14 13 12 12 11 10 10 10 10 10 12 13 13 13 12 12 9 7 6 6 6 5 5 5 5 5 4 3 2 2 4 3 3 4 2 3 2 1 2 2 2 2 4 6 1 9 8 3 9 9 1 7 8 8 8 15 20 21 22 22 21 21 21 21 20 19 18 17
23 22 21 20 19 19 18 16 16 14 14 14 14 14 15 15 15 16 15 15 14 13 12 12 11 10 8 10 11 11 13 16 16 14 13 12 10 8 7 7 7 7 7 7 6 6 4 4 4 3 4 4 4 4 3 4 3 2 1 3 3 2 5 9 1 11 8 3 8 7 1 7 9 8 10 17 21 22 22 23 23 23 23 23 21 20 19 18
25 24 23 21 21 20 19 18 17 16 15 15 15 14 14 15 15 15 15 15 13 12 12 11 12 10 5 6 10 10 14 18 18 17 16 14 11 9 8 8 8 8 8 7 6 5 4 4 4 4 4 4 4 4 4 4 4 4 1 3 3 2 3 6 2 8 7 5 5 5 2 4 6 4 11 19 22 23 22 22 25 25 25 25 23 22 21 21
27 26 25 23 23 22 20 19 18 16 16 16 16 15 14 14 14 15 15 14 12 12 11 9 9 9 6 7 9 11 16 19 18 18 17 14 12 10 8 9 9 9 8 7 6 5 6 5 5 3 2 3 3 5 4 2 3 3 0 2 4 3 2 3 4 4 6 6 5 5 4 7 6 2 12 21 22 23 23 24 26 27 27 26 25 24 23 23
28 28 27 25 25 23 21 20 18 17 17 17 16 15 14 14 14 14 13 13 12 9 7 8 6 3 7 13 13 13 15 17 17 16 15 14 12 10 9 8 8 8 7 6 5 6 6 3 4 1 2 2 2 5 3 4 4 3 3 2 4 3 3 4 4 3 6 4 4 5 5 11 11 7 12 20 22 24 26 26 26 27 28 27 26 26 25 25
28 28 27 26 25 25 23 21 19 18 18 17 15 14 13 12 11 11 12 14 14 9 4 12 15 5 3 12 17 14 12 14 16 15 15 14 13 12 10 8 8 9 8 5 3 5 6 4 5 2 1 3 5 6 8 8 7 6 6 5 4 4 4 5 5 6 8 4 4 8 8 11 12 11 13 19 24 26 27 25 22 24 27 28 28 28 27 26
27 26 26 26 26 25 23 21 19 19 18 16 15 14 12 10 6 6 13 18 21 18 8 12 22 13 1 5 15 15 11 12 16 16 15 15 15 14 11 9 9 7 5 5 3 3 6 3 2 5 7 9 9 9 9 6 6 5 4 3 4 4 5 5 4 6 6 5 5 9 9 10 11 10 12 17 20 22 24 23 23 25 28 31 32 31 29 27
25 25 25 25 25 25 23 22 20 19 18 17 18 15 11 12 7 3 12 18 24 28 17 9 17 19 7 3 9 14 13 13 15 17 17 16 16 13 12 11 7 3 3 5 5 3 5 4 7 10 10 9 8 8 7 4 4 2 3 3 4 4 6 6 4 4 3 4 6 6 7 11 11 11 13 12 12 18 26 26 26 29 31 33 33 32 31 27
22 23 24 23 24 24 23 22 21 19 18 18 20 18 12 14 13 7 7 9 16 25 26 18 17 20 15 7 8 13 13 11 13 18 19 20 19 13 12 10 4 3 3 5 5 2 2 4 11 14 7 5 4 6 6 6 5 4 3 2 5 4 4 7 5 3 1 4 5 5 6 9 10 10 11 13 15 21 30 32 33 35 33 34 34 34 33 30
21 21 22 22 23 23 23 22 21 20 20 19 20 20 15 13 15 11 6 4 9 16 25 27 26 25 22 16 13 16 15 11 13 21 23 23 21 16 14 10 4 4 4 4 6 4 3 6 14 14 8 6 4 4 6 4 4 5 4 3 5 3 2 4 5 3 1 2 3 4 6 7 8 7 10 17 22 21 24 28 34 36 35 35 36 36 36 35
19 20 21 21 21 22 22 21 21 20 20 20 21 21 16 12 12 10 6 4 6 10 18 24 28 31 30 23 18 20 20 14 14 21 26 27 23 15 13 11 6 5 5 9 9 7 7 6 6 8 10 8 7 5 6 4 3 5 6 6 6 5 6 6 4 3 3 4 2 3 7 6 6 9 10 12 13 15 19 21 27 33 34 33 33 35 37 37
19 20 20 21 21 22 22 22 23 22 20 20 21 20 16 11 9 7 4 2 5 6 10 16 21 27 31 27 21 21 19 16 17 20 26 30 25 13 9 11 7 4 8 9 7 6 9 6 3 8 7 8 7 6 6 7 5 5 6 9 9 8 8 5 2 4 4 5 4 2 4 6 4 7 10 6 3 9 14 16 24 30 30 30 32 35 36 35
19 20 21 21 22 22 22 21 22 21 20 20 20 19 16 11 9 6 3 2 4 4 4 10 13 14 21 25 23 18 9 13 20 22 24 27 26 14 6 8 6 5 7 6 3 4 5 8 6 7 7 8 7 6 6 8 6 4 6 9 10 8 7 5 2 1 1 4 4 2 2 7 6 5 8 6 4 8 9 12 21 26 26 30 33 35 37 36
21 21 21 22 23 26 24 20 21 22 20 18 19 20 17 13 11 7 5 4 5 5 7 9 10 10 14 21 28 19 2 8 17 21 27 27 25 18 8 6 4 4 6 5 3 3 4 9 7 6 7 6 6 6 6 8 7 5 5 6 8 7 7 6 5 4 3 3 4 3 3 5 9 7 7 7 6 9 10 12 17 20 23 29 32 34 37 37
22 22 22 23 25 29 27 21 22 23 18 15 18 21 18 16 12 8 5 1 3 6 6 6 9 11 12 21 33 21 6 12 12 16 30 29 25 16 8 9 7 6 9 8 4 3 4 9 10 9 7 5 6 5 7 10 6 5 3 6 7 6 5 3 4 3 1 2 4 2 3 3 9 6 1 3 7 9 13 15 13 16 24 28 31 34 36 36
24 24 24 24 26 30 27 22 22 21 16 13 18 21 19 18 11 6 3 2 3 4 3 7 8 10 14 21 27 17 9 8 4 13 27 26 25 14 3 8 8 6 10 9 6 3 2 6 10 10 7 7 5 2 7 11 6 4 6 7 6 5 5 5 4 3 2 2 5 6 5 3 9 5 3 2 4 8 12 13 8 12 24 29 30 33 34 35
26 26 26 25 29 33 28 25 24 19 17 17 19 23 23 17 8 4 2 3 2 2 4 7 7 11 18 16 11 7 6 2 4 16 18 14 19 12 1 5 6 4 4 6 5 3 2 1 4 5 5 6 5 4 2 7 7 8 8 6 7 6 5 4 2 4 1 5 6 9 10 6 6 4 4 3 4 7 9 8 5 6 19 28 30 32 34 35
30 28 27 28 33 35 32 30 28 24 23 21 22 27 24 10 3 5 6 1 1 2 5 4 3 9 17 13 7 5 3 1 7 15 9 4 9 7 3 4 3 3 1 6 5 4 4 0 1 2 4 7 8 5 3 2 6 8 5 5 4 4 4 4 4 4 1 6 5 9 10 9 8 6 3 5 6 5 7 7 5 6 17 26 30 32 34 35
34 32 30 32 34 35 36 33 27 27 28 24 27 30 19 4 2 5 5 2 0 4 5 4 4 7 12 10 8 8 5 3 7 10 7 5 6 7 7 7 5 3 3 6 4 3 2 4 2 1 4 7 7 4 4 4 3 5 5 6 4 2 2 2 3 0 4 7 3 3 5 6 10 7 5 9 10 8 8 8 9 10 17 24 30 33 33 34
38 37 35 36 36 36 37 32 26 29 29 28 30 24 9 3 7 8 8 4 1 3 4 4 3 7 11 8 5 6 4 2 7 7 5 5 5 8 8 6 5 3 2 6 4 2 3 6 2 1 3 8 10 7 3 1 3 6 6 7 5 2 1 2 4 2 4 6 4 0 3 3 6 5 9 14 13 10 9 11 12 13 16 21 28 33 34 34
41 40 39 41 40 38 35 30 30 30 30 32 28 13 3 6 8 10 13 9 2 1 2 4 6 7 10 7 5 8 5 3 7 6 4 6 5 7 6 6 7 2 3 4 3 6 5 6 5 7 4 10 12 8 7 6 5 6 4 6 6 5 4 4 4 4 4 4 4 1 3 3 3 3 7 10 9 9 9 12 13 14 15 18 24 31 33 34
38 38 40 43 42 40 35 31 32 32 35 36 21 7 7 8 6 9 11 8 3 2 2 4 8 7 7 3 2 8 5 3 6 5 4 7 6 8 8 9 11 6 5 4 2 4 5 7 7 5 3 11 11 6 7 8 2 3 3 5 3 5 6 3 3 5 3 2 3 2 4 5 4 5 8 6 7 7 8 9 8 11 13 17 24 31 35 36
37 36 39 44 43 42 39 35 34 35 39 33 12 6 11 9 6 6 6 6 6 5 6 4 4 5 7 3 3 7 3 1 6 5 4 4 4 7 7 7 11 11 8 7 2 2 3 5 5 1 2 5 7 5 6 4 3 2 3 4 3 3 5 3 2 1 3 2 4 4 5 5 3 7 9 6 5 7 6 5 6 10 13 19 26 32 35 37
42 41 42 48 45 42 42 39 37 39 39 25 8 8 9 7 6 5 4 6 9 11 9 4 4 6 7 5 4 8 4 2 5 5 4 3 3 7 8 5 9 16 14 8 3 3 5 3 4 2 2 3 1 5 5 4 5 5 4 6 2 2 2 2 2 3 2 3 5 3 6 6 3 5 4 2 4 10 8 5 6 9 14 21 26 31 34 36
42 45 45 50 47 45 47 43 41 44 35 15 8 9 6 8 9 6 5 7 9 11 9 7 7 7 8 8 6 8 7 5 6 6 5 4 5 8 11 6 8 18 20 10 2 3 4 2 4 1 2 2 3 5 3 5 4 5 4 5 4 1 1 2 2 2 1 3 5 2 5 6 7 5 1 1 8 12 10 7 6 10 17 22 25 29 32 34
34 36 36 47 51 49 48 47 48 45 25 8 9 9 6 10 14 11 11 10 7 9 9 9 8 4 6 9 6 7 10 8 9 7 5 5 5 7 13 10 7 15 22 15 6 3 3 3 3 2 1 1 2 2 4 1 2 4 3 3 2 2 3 3 3 3 3 3 4 3 3 4 6 7 7 9 12 12 10 8 9 14 21 25 26 29 32 34
29 21 20 38 48 49 50 50 48 34 12 7 11 7 4 9 13 17 20 14 7 7 9 9 8 6 6 8 6 7 8 7 9 8 5 6 5 4 9 11 6 9 19 19 10 3 3 2 3 2 2 1 2 4 8 10 6 3 4 4 2 2 2 1 2 2 4 3 3 4 6 6 4 5 9 12 12 11 11 11 12 17 23 27 29 32 33 35
26 12 12 28 35 43 53 45 29 17 7 8 11 7 5 6 8 14 17 13 7 5 5 5 8 8 6 7 6 7 7 6 8 7 4 7 7 4 8 15 11 9 11 11 9 5 3 3 4 2 2 3 5 5 6 8 7 6 7 8 8 6 4 2 4 2 2 3 4 2 8 10 4 3 6 8 8 8 11 13 12 16 24 28 31 33 34 34
21 8 7 17 23 38 48 28 11 11 10 9 10 7 5 3 5 10 12 10 5 3 1 2 6 8 6 7 8 7 7 6 8 9 6 8 9 5 8 16 17 16 13 8 9 8 4 3 3 3 3 5 6 4 2 4 3 3 3 4 6 7 7 6 6 4 2 3 3 3 6 9 3 2 3 4 5 7 9 13 14 16 23 29 32 32 33 33
19 13 9 9 20 41 37 11 7 11 6 6 7 6 7 3 4 8 11 10 5 3 3 2 3 7 6 5 7 8 9 7 9 11 8 7 9 6 7 14 17 16 11 5 4 5 4 2 2 2 1 2 4 4 3 1 3 2 3 4 6 8 7 6 5 4 3 4 4 2 7 7 2 1 3 4 7 9 11 15 17 17 19 25 30 32 33 32
22 22 16 8 20 39 27 6 8 9 3 5 7 7 10 6 4 9 11 12 8 4 4 3 3 6 5 3 5 9 11 8 8 11 8 5 6 5 8 16 17 13 9 6 7 10 6 3 4 3 2 3 3 2 2 1 2 4 4 4 5 6 6 3 1 2 3 7 9 5 10 7 1 3 3 4 6 7 11 14 17 18 19 23 29 31 32 32
18 16 15 14 27 36 22 9 9 9 7 9 7 10 12 7 10 15 12 12 13 7 4 4 5 6 3 3 2 4 10 9 6 8 7 4 3 2 6 13 15 12 10 9 13 15 9 4 6 7 7 8 6 4 4 4 3 2 2 5 7 9 11 7 2 4 6 5 10 10 13 6 2 4 4 5 5 6 9 10 13 19 21 23 28 31 32 33
10 7 7 12 26 33 25 19 13 6 7 10 6 10 15 10 10 16 14 11 15 15 7 2 5 6 3 4 4 4 8 6 2 4 6 5 3 1 4 8 9 10 7 6 12 12 4 2 10 12 11 13 9 4 5 8 7 6 8 10 11 12 13 9 6 8 6 3 7 14 13 11 9 4 4 5 4 5 8 8 12 18 21 24 28 32 33 34
7 5 7 8 13 19 20 20 12 4 6 11 6 7 17 16 9 11 15 13 15 18 9 1 5 7 6 8 9 8 7 4 2 4 6 6 3 1 2 3 3 6 5 6 11 10 3 3 11 13 15 17 9 4 8 11 11 13 13 12 13 12 13 12 13 11 6 3 12 11 8 14 17 8 6 7 5 5 8 12 17 20 23 25 27 30 32 34
9 5 11 14 9 6 10 14 11 6 8 12 7 5 13 18 12 10 14 13 11 15 10 3 8 14 14 14 10 7 7 5 5 6 5 4 4 3 3 1 1 4 4 4 6 5 4 6 8 8 14 17 6 6 7 9 8 8 12 13 14 15 16 17 19 15 8 9 17 8 10 18 19 9 8 9 9 12 14 17 18 19 21 24 26 28 32 34
12 8 8 14 10 7 15 20 15 10 9 9 8 7 11 16 16 12 10 8 7 11 12 11 15 18 16 13 9 7 8 8 9 8 6 5 5 5 4 2 2 3 3 4 2 1 3 3 2 4 9 15 7 6 6 7 4 4 9 13 15 18 20 20 20 19 14 17 21 12 13 20 13 6 9 12 15 16 13 13 14 16 20 23 26 29 32 34
14 10 7 9 7 7 16 19 12 8 10 9 7 8 9 13 17 14 9 10 10 11 14 17 19 16 14 13 11 11 13 13 13 10 8 7 5 4 5 4 3 3 2 3 2 1 3 2 1 4 3 11 7 6 5 7 6 6 10 15 17 17 16 16 17 17 14 19 23 16 18 20 7 8 10 11 11 9 8 12 16 19 21 22 25 29 30 31
22 17 12 7 4 5 9 9 7 7 9 8 6 6 8 13 17 13 10 15 17 13 14 21 19 11 11 13 13 16 19 17 15 11 10 11 9 5 4 4 7 5 2 3 3 2 3 2 2 4 3 9 6 7 7 7 5 7 16 21 18 11 10 14 16 15 15 19 20 14 17 17 6 7 7 7 8 10 12 16 18 18 19 22 25 27 27 28
31 25 18 9 5 6 6 5 7 8 7 8 9 10 9 11 14 11 7 11 18 19 20 23 19 10 9 14 19 27 29 23 21 16 13 15 13 7 8 8 10 9 5 3 2 3 5 4 1 4 5 7 3 7 8 4 3 8 17 18 14 13 15 17 16 17 18 18 14 13 17 15 5 6 7 7 7 9 13 19 22 21 20 21 24 25 23 23
Wind_Direction
204 206 208 211 213 215 217 219 222 224 225 222 218 211 205 200 195 193 192 194 194 192 186 183 184 187 194 196 195 195 196 206 217 223 219 214 227 218 149 140 134 122 115 143 180 181 159 116 86 87 80 74 46 33 58 44 34 64 100 83 94 154 161 184 183 189 169 171 192 187 182 163 150 148 134 117 131 136 126 120 121 140 152 163 170 168 180 185
205 207 209 212 215 218 220 222 224 225 224 219 213 207 203 200 201 200 197 198 195 190 186 185 188 193 201 204 207 211 214 229 230 216 215 222 223 179 149 144 135 117 94 73 147 190 174 140 87 92 73 83 55 43 66 43 45 68 98 90 158 197 188 193 172 188 179 157 165 165 175 177 169 163 151 142 148 140 127 117 130 156 162 167 171 171 186 190
206 208 210 212 213 215 216 218 217 217 217 214 211 207 205 203 203 204 201 198 192 189 187 189 194 199 207 213 220 220 221 240 233 197 179 177 172 160 155 152 142 124 93 61 56 154 158 129 97 110 85 88 62 59 65 40 43 54 86 90 224 204 142 69 107 136 169 154 145 136 155 170 166 171 165 161 169 174 175 167 168 185 187 183 177 177 184 191
202 204 205 205 206 207 207 208 209 211 212 211 211 209 209 207 204 203 200 195 192 191 192 195 200 203 214 222 229 232 242 254 213 160 128 133 142 155 161 164 162 157 115 52 36 85 125 106 100 104 88 109 78 82 64 35 37 41 91 135 200 179 130 101 102 104 139 145 139 135 137 155 167 185 181 153 147 243 230 208 208 212 207 198 188 184 184 189
194 197 198 199 200 201 202 203 204 206 207 209 209 208 209 208 205 202 198 196 195 195 197 201 205 210 219 224 237 227 207 3 183 159 130 133 141 155 165 174 183 198 216 17 9 35 134 122 106 89 72 109 84 84 58 41 69 70 57 142 164 162 147 148 125 114 135 141 141 144 145 165 176 188 190 174 173 237 232 225 225 220 213 207 197 191 187 187
190 192 194 197 198 199 201 202 203 203 203 205 206 207 206 206 206 204 201 201 201 202 204 206 209 216 224 229 247 224 201 82 165 160 144 146 148 160 170 181 197 223 244 275 323 324 175 138 91 73 61 64 60 88 73 43 76 102 33 77 126 160 154 155 151 139 152 158 161 170 176 172 174 194 208 209 220 232 229 223 219 208 202 205 202 200 198 192
194 195 196 197 199 201 203 205 208 206 205 205 206 207 206 206 206 207 207 206 209 210 211 213 214 220 231 235 247 239 241 223 171 167 161 159 161 170 177 210 238 256 262 271 288 288 195 138 79 68 72 69 73 89 76 60 82 105 151 79 99 139 151 161 177 179 181 187 187 178 175 178 182 197 216 227 229 223 209 202 202 199 199 209 214 215 213 204
198 200 200 200 204 206 208 211 214 213 213 211 210 209 208 208 209 210 211 212 215 217 218 219 216 223 233 238 251 258 251 219 179 177 176 175 178 186 203 242 255 279 270 263 257 211 181 116 85 82 81 78 115 114 87 68 58 82 142 168 111 138 164 177 197 206 211 216 204 188 189 199 200 202 225 231 221 202 193 191 194 200 208 219 225 226 222 214
201 201 201 202 205 207 211 214 215 217 220 219 218 217 214 213 213 212 214 216 217 220 222 222 221 224 229 237 247 259 247 209 186 185 184 188 192 195 208 205 152 53 12 235 204 189 172 114 91 93 106 110 114 97 71 63 10 102 135 117 74 185 198 201 213 218 224 226 212 209 229 232 220 225 249 238 217 196 191 192 197 205 213 220 225 226 220 215
203 204 204 205 206 210 213 214 216 218 220 222 223 223 222 220 219 218 217 218 219 221 223 224 226 223 226 234 229 242 241 200 184 186 188 194 194 184 176 158 113 86 80 152 165 174 160 129 95 90 101 95 93 72 35 70 147 138 114 3 292 268 260 236 229 231 227 228 221 210 230 248 223 204 243 229 205 196 193 195 202 208 214 218 218 215 211 209
204 206 206 207 211 214 215 216 218 220 221 222 223 225 226 225 225 224 223 223 223 224 225 224 227 226 229 229 217 225 222 190 184 188 191 194 190 178 172 170 135 121 126 131 157 167 146 133 107 103 107 94 87 63 55 99 130 123 54 322 298 301 287 250 233 232 218 223 228 210 227 274 204 195 240 217 198 199 199 199 203 208 213 213 208 207 207 207
207 207 207 209 215 218 220 222 222 224 225 224 224 226 227 228 228 228 227 227 226 226 227 227 227 228 231 232 228 229 206 188 189 191 193 192 189 190 195 195 186 178 174 148 184 177 141 130 119 135 141 141 132 60 94 115 106 44 46 333 308 345 320 248 233 223 202 207 219 191 280 296 220 221 238 206 195 196 198 201 203 207 212 210 205 205 207 209
213 212 211 211 215 219 222 225 227 229 230 229 228 227 228 229 229 230 230 229 230 229 230 230 230 230 231 235 237 231 213 200 195 194 194 190 195 217 223 210 214 216 201 189 197 179 155 159 174 150 133 138 160 126 132 103 74 315 46 46 320 358 334 268 254 202 187 199 185 160 271 279 250 240 212 192 193 189 194 202 204 206 210 209 207 208 210 211
220 219 218 215 218 220 222 224 227 230 233 234 231 230 230 229 229 230 230 229 231 231 232 233 232 231 231 237 242 230 215 206 200 200 196 197 213 235 228 215 219 215 208 206 196 192 189 194 213 176 138 129 139 137 90 22 48 333 13 28 10 7 281 302 4 163 166 211 179 146 223 263 269 262 198 190 196 193 196 201 205 208 209 211 210 211 214 215
225 225 224 223 223 223 223 224 225 228 232 235 234 233 231 229 230 229 229 229 229 230 231 232 230 226 231 241 241 228 215 210 209 207 204 215 234 237 224 218 218 210 206 210 205 211 222 209 203 158 132 131 123 112 23 359 11 34 34 318 341 162 263 311 272 168 162 198 183 150 213 262 278 269 202 190 195 199 202 204 207 209 210 211 212 213 216 219
228 228 228 229 229 229 229 227 226 226 228 233 234 233 230 229 228 227 227 226 225 226 225 227 225 217 224 244 235 226 218 215 213 212 214 224 232 228 222 218 214 210 208 212 217 222 216 185 159 130 132 139 118 88 44 13 342 360 109 251 276 187 271 321 288 191 166 137 190 200 219 258 289 266 194 189 196 201 206 210 210 210 212 212 214 217 218 221
229 229 230 231 232 234 233 231 230 228 227 228 230 230 229 227 225 224 221 218 217 216 215 218 218 215 232 241 229 226 223 217 214 214 218 221 224 225 224 214 204 206 209 209 211 201 186 162 140 141 116 95 100 92 61 339 298 321 343 235 247 206 220 294 306 241 166 141 206 223 230 247 272 255 188 193 200 203 210 217 214 212 213 214 216 219 221 223
230 230 231 231 233 235 234 235 232 230 228 225 226 227 224 223 222 218 211 207 200 193 206 202 179 198 244 231 224 227 225 218 214 213 214 214 214 211 210 211 200 195 188 183 189 168 162 135 113 119 25 42 100 108 140 225 205 199 192 209 254 236 217 243 279 226 166 166 211 196 235 252 264 264 208 203 204 207 217 222 219 216 214 215 218 220 222 225
230 230 230 230 233 234 234 234 232 231 228 224 222 218 216 214 211 212 204 195 185 171 200 201 186 166 233 219 216 222 222 212 207 206 207 204 196 188 190 194 184 179 166 157 183 162 150 93 78 105 217 218 199 164 190 206 177 172 177 167 194 229 247 234 253 231 178 173 223 205 223 243 252 257 231 216 210 214 225 228 225 221 217 218 219 221 223 224
230 230 230 231 233 233 232 230 231 230 224 221 214 203 199 186 176 212 205 201 202 202 214 209 202 201 151 195 208 211 204 195 199 198 196 194 185 175 172 170 163 170 171 158 179 168 148 130 154 201 211 208 202 194 203 192 155 146 142 160 197 218 264 253 262 262 182 168 244 223 224 243 246 252 249 231 215 218 228 230 230 225 221 221 220 221 223 224
229 229 229 230 231 231 228 225 226 226 221 217 205 193 190 181 175 217 206 214 222 218 223 223 207 211 208 168 201 206 192 182 192 194 190 188 179 168 170 165 147 166 203 149 128 132 144 164 218 223 213 204 199 196 201 190 170 182 168 218 248 220 254 258 254 282 183 173 260 248 239 254 250 250 258 237 206 220 226 223 228 228 225 223 220 220 221 221
230 229 226 225 226 227 223 219 220 220 217 214 204 197 198 197 200 210 203 229 242 230 229 227 216 216 213 205 206 202 189 176 186 189 185 180 178 180 176 163 150 173 171 122 102 114 176 212 236 229 196 162 185 179 185 204 211 226 212 234 259 234 267 278 273 297 168 180 258 276 260 259 256 256 255 232 214 228 230 226 230 230 225 222 219 218 218 217
232 230 224 220 220 220 217 214 214 214 212 211 207 203 204 204 205 213 217 255 268 243 232 228 227 222 215 214 212 200 192 185 184 186 184 179 181 190 177 162 174 153 136 155 155 165 197 241 244 224 168 147 206 181 155 185 224 221 212 213 244 239 237 272 283 301 277 223 254 287 284 271 265 266 257 241 232 237 240 235 236 234 229 226 223 220 219 216
231 228 225 220 216 214 210 209 210 210 209 209 209 206 207 207 205 213 223 256 281 251 236 233 230 227 222 217 212 205 203 204 194 185 185 182 179 184 184 178 165 138 175 193 184 195 217 245 240 185 164 174 202 195 159 172 237 232 211 203 221 228 216 232 284 321 328 326 319 311 300 279 249 250 256 249 236 237 243 240 238 236 233 232 226 221 220 219
226 227 224 218 214 209 202 204 209 209 208 208 208 204 200 197 192 200 208 274 291 255 242 234 229 232 227 220 214 206 206 218 214 197 190 188 181 172 182 188 169 172 205 192 187 228 238 239 142 132 164 181 185 206 189 181 216 254 225 204 209 212 216 230 337 13 355 326 318 347 293 281 261 246 255 264 239 238 240 235 236 234 228 226 223 218 217 218
225 225 221 215 209 199 196 205 211 210 208 208 205 196 189 179 169 172 137 30 293 237 201 207 214 224 216 210 200 186 203 231 218 208 198 194 192 180 166 179 178 201 192 166 190 246 227 212 170 136 160 173 184 221 214 182 184 256 237 202 200 192 199 218 172 86 266 265 296 54 185 275 289 238 236 238 232 251 247 238 239 234 222 218 219 217 215 213
228 224 219 213 202 194 197 207 211 207 205 207 200 189 181 166 154 153 109 21 280 188 151 181 189 190 196 195 183 171 188 204 195 207 201 195 196 193 190 182 169 200 168 136 234 252 169 191 196 163 153 163 188 221 216 174 164 241 240 176 175 181 198 211 181 188 230 259 319 24 127 272 283 248 222 205 214 263 265 253 245 230 220 217 215 216 214 213
230 224 218 209 200 201 203 208 212 206 200 198 192 184 174 161 151 136 114 344 253 150 146 177 168 174 182 180 180 175 136 145 158 201 196 192 196 196 211 203 176 183 174 157 223 249 144 177 198 184 173 191 200 209 183 158 168 244 204 131 144 162 168 146 142 180 305 356 297 276 136 257 276 264 268 206 217 253 258 254 247 220 216 216 213 214 212 211
230 223 218 205 199 202 202 206 212 205 193 178 177 179 167 155 145 104 94 220 190 121 140 163 153 165 159 164 181 179 141 142 144 184 185 189 196 194 227 207 184 174 190 198 218 233 128 189 196 179 182 207 200 194 169 166 190 195 130 93 76 78 78 80 106 122 46 316 238 212 169 234 272 252 102 83 217 233 247 255 258 215 214 216 211 211 209 208
231 224 215 201 198 199 197 204 207 194 180 168 168 171 159 148 134 113 179 223 189 125 134 156 163 166 153 152 187 185 144 147 120 153 170 186 193 195 136 171 168 138 201 254 245 253 334 208 192 179 189 185 140 77 141 175 165 133 105 65 52 37 39 51 49 79 40 275 222 191 183 191 274 275 159 180 214 217 233 257 288 219 211 213 210 208 207 206
226 224 213 204 205 202 197 203 201 187 180 172 165 163 154 139 98 166 195 234 15 146 129 158 175 158 158 157 178 182 140 106 138 150 160 165 179 190 142 143 138 109 263 278 268 310 334 55 216 209 170 135 107 72 33 97 132 117 87 80 75 352 10 25 355 49 225 261 222 193 188 186 232 263 225 243 265 239 223 239 258 219 207 209 208 207 206 205
222 223 217 212 212 207 204 207 199 184 181 175 168 162 150 132 251 212 204 77 84 194 156 179 190 159 166 168 176 175 149 154 171 165 164 156 171 190 192 188 168 144 241 236 237 326 283 238 273 280 179 159 128 90 38 27 81 101 96 111 112 314 1 356 311 46 224 259 272 199 179 202 236 255 264 266 270 257 236 234 240 232 217 211 207 206 204 203
228 222 216 216 217 213 210 209 196 183 180 172 167 162 146 185 200 207 208 179 204 205 138 136 148 151 162 167 183 171 140 174 180 172 171 160 180 207 219 222 187 167 201 194 189 192 254 295 307 119 243 198 166 154 168 197 170 153 139 143 154 160 141 268 261 268 259 269 308 172 164 249 274 270 243 245 257 267 267 258 252 249 236 221 211 205 202 202
234 223 213 215 220 217 212 204 193 187 177 165 162 159 185 214 195 195 206 207 198 87 103 119 116 140 169 179 188 165 156 223 179 162 170 159 177 214 228 238 218 179 100 147 173 178 213 288 208 179 206 189 183 187 169 140 158 182 155 143 159 159 170 218 215 221 252 279 302 279 170 207 216 241 236 243 272 289 285 272 259 252 243 225 209 201 200 202
237 228 218 217 218 216 214 205 195 188 174 163 159 171 197 203 205 205 206 201 174 89 54 109 116 139 193 231 234 181 173 215 174 154 176 178 192 203 200 213 204 165 131 178 219 166 201 267 233 204 162 168 181 186 134 110 142 224 116 121 175 180 175 206 202 179 179 285 290 216 217 221 208 256 258 253 281 283 281 277 250 234 224 204 197 197 200 202
233 227 223 221 218 215 213 205 196 188 174 164 163 200 197 202 202 198 195 176 170 137 103 99 107 144 198 221 249 213 198 120 154 161 201 204 226 210 201 213 195 182 179 180 181 153 180 274 271 359 54 175 178 161 138 137 176 167 129 174 205 159 151 194 265 70 100 265 263 199 240 284 308 274 255 228 256 269 274 268 224 211 199 191 193 195 199 202
227 221 220 219 218 216 212 205 196 189 180 173 187 202 200 218 192 166 187 168 150 142 139 169 183 168 188 198 210 205 193 118 158 176 196 197 246 210 200 226 196 196 203 188 193 199 168 258 284 105 166 251 126 110 83 56 120 129 178 199 171 57 89 137 257 347 47 260 269 212 234 264 261 265 288 70 254 260 255 236 219 207 194 193 196 196 199 203
229 220 218 221 220 214 211 206 197 191 186 183 208 207 211 228 206 177 169 156 145 156 174 208 197 173 182 193 200 188 180 177 176 186 186 191 243 203 181 205 204 201 207 198 220 239 161 222 297 50 188 282 44 108 76 15 70 120 177 177 129 127 201 124 177 228 193 254 280 261 242 245 217 218 284 146 229 244 239 217 215 213 202 201 200 197 200 203
235 219 219 226 222 214 212 207 196 190 188 190 205 208 212 218 219 207 181 169 161 172 195 211 197 179 185 185 177 173 185 188 171 178 189 190 232 203 177 191 205 201 201 192 195 215 155 202 264 330 287 319 33 145 177 230 19 60 100 141 103 132 175 166 170 173 163 221 269 288 280 250 214 193 187 203 223 231 222 209 216 217 209 203 200 198 200 203
240 224 229 230 222 216 212 203 194 189 188 201 201 200 197 205 216 208 193 187 180 181 204 210 189 183 192 184 173 173 190 195 173 182 206 191 206 226 188 184 184 191 192 191 195 171 123 217 234 317 323 199 187 204 186 184 181 144 145 171 181 116 110 171 205 145 139 177 225 279 281 261 218 178 190 204 220 223 211 209 220 219 210 205 203 203 204 205
240 237 242 231 224 216 205 194 190 191 191 209 208 201 192 188 195 198 195 195 201 201 205 203 193 191 180 175 188 183 179 189 185 191 216 202 203 233 200 189 179 163 171 190 205 189 169 197 170 162 249 210 223 240 208 192 182 175 188 188 180 164 137 175 240 210 138 187 186 207 275 268 232 184 208 208 218 227 217 217 227 220 209 207 206 207 209 209
237 246 243 234 227 207 195 187 190 193 191 208 207 191 180 152 159 187 194 195 209 240 210 190 206 203 186 183 191 182 175 186 190 194 213 213 206 213 203 194 179 159 153 180 205 187 151 120 144 185 209 218 242 263 217 194 151 129 202 189 172 182 172 178 221 217 163 218 177 133 276 276 251 181 242 247 258 271 249 233 236 227 213 209 208 208 212 212
234 248 251 240 216 199 190 188 205 194 198 216 199 178 183 172 131 171 193 196 188 189 201 208 198 199 204 190 179 179 184 192 196 198 209 216 213 217 196 183 170 160 159 177 196 168 129 119 185 228 316 317 308 332 8 42 104 123 242 188 178 204 196 184 201 179 178 211 162 136 258 264 308 288 269 295 298 297 277 249 236 229 218 212 209 209 210 211
229 244 248 238 204 195 191 195 199 196 217 208 207 205 199 207 189 175 190 200 190 156 177 205 195 198 209 169 163 187 190 193 210 207 206 206 206 205 181 175 171 167 176 186 171 166 170 178 180 195 268 312 324 324 316 336 160 203 227 184 186 197 180 175 124 113 240 209 160 191 247 238 298 314 318 344 333 312 289 263 238 227 220 213 210 209 210 210
220 237 242 224 204 198 201 214 196 197 203 190 201 206 198 214 214 201 197 200 202 191 174 197 185 172 177 151 132 198 198 199 210 205 206 211 199 184 180 184 185 185 195 194 172 166 170 173 172 188 220 230 229 218 201 175 169 215 193 171 192 194 185 192 187 196 235 194 159 208 245 247 325 333 338 346 346 316 295 274 239 227 222 217 212 210 210 210
203 208 222 208 203 205 221 234 212 187 197 195 197 199 199 212 213 204 201 202 211 210 198 179 165 148 140 176 179 214 215 215 195 177 194 198 198 225 182 185 192 192 194 174 158 157 142 185 191 196 214 224 227 211 164 144 156 204 205 189 196 201 196 197 213 218 208 145 200 224 239 263 275 284 308 301 289 279 282 270 239 226 222 219 215 211 210 211
208 190 188 182 197 209 229 237 221 174 179 192 194 194 201 208 203 194 203 209 211 208 204 120 170 180 186 188 197 213 208 200 159 175 191 188 178 175 158 153 160 163 149 140 152 148 108 217 209 206 220 228 221 159 160 162 174 199 203 198 200 201 196 198 218 222 156 160 246 229 201 252 260 235 224 251 245 248 255 245 235 226 219 217 214 211 210 210
223 216 200 192 192 198 215 220 208 189 182 184 194 205 202 206 198 182 201 210 202 197 198 209 208 207 200 190 194 203 189 190 204 195 191 179 158 140 135 103 136 142 118 123 152 143 144 211 217 206 228 240 217 123 160 172 174 196 199 203 204 199 199 204 218 221 175 208 249 223 175 233 250 233 219 221 215 224 231 233 234 229 222 215 209 209 209 209
222 242 222 200 199 194 204 211 207 204 204 192 201 213 204 206 204 195 193 189 191 196 194 207 219 214 205 197 192 195 190 194 210 205 183 170 173 167 159 158 196 172 131 127 146 133 154 194 205 170 234 252 227 142 160 166 160 205 209 210 209 204 205 205 216 222 208 225 245 238 230 248 247 210 219 223 222 227 230 234 234 228 224 214 207 209 210 210
225 235 222 203 217 203 199 207 205 203 213 207 210 216 207 206 207 207 194 173 184 197 194 212 222 208 202 205 198 209 213 203 209 209 173 166 185 186 185 179 163 174 163 136 138 206 180 187 82 105 240 261 230 160 163 174 184 223 232 227 218 211 210 211 220 223 215 232 244 243 256 262 232 169 212 225 220 217 215 227 229 226 222 212 208 211 211 210
234 237 226 201 217 200 188 194 184 190 210 204 202 208 210 214 209 207 207 196 196 194 190 210 219 199 198 210 206 220 222 212 215 205 163 174 198 199 207 178 125 126 165 151 137 146 164 181 58 96 216 256 222 173 200 203 187 242 252 241 222 205 210 216 222 218 210 226 239 238 251 257 218 161 199 201 195 199 207 217 221 222 220 212 209 211 211 212
231 238 235 220 215 202 189 187 182 192 203 192 196 199 200 217 215 204 214 215 211 208 202 208 212 191 189 205 213 223 225 221 227 222 193 197 208 213 222 199 155 149 164 160 159 158 147 153 143 141 206 257 222 170 194 192 169 248 255 241 209 197 215 221 223 222 214 218 226 226 239 247 210 165 191 195 198 203 212 220 219 215 213 212 214 214 214 217